Total_Precipitation_Accumulation
0.02 0.04 0.09 0.11 0.13 0.15 0.19 0.23 0.29 0.25 0.24 0.31 0.41 0.61 0.86 0.99 1.18 1.35 1.33 1.35 1.46 1.56 1.80 2.03 2.20 2.40 2.68 2.92 3.09 3.34 3.59 3.95 4.23 4.61 4.93 5.14 5.35 5.57 5.65 5.58 5.51 5.46 5.43 5.56
0.05 0.06 0.07 0.09 0.09 0.10 0.13 0.19 0.26 0.28 0.28 0.30 0.45 0.64 0.88 0.99 1.13 1.31 1.39 1.48 1.51 1.61 1.80 2.16 2.51 2.93 3.15 3.31 3.39 3.62 3.98 4.29 4.47 4.86 5.39 5.87 6.07 6.19 6.19 6.18 6.28 6.28 6.25 6.40
0.07 0.07 0.07 0.06 0.07 0.07 0.10 0.15 0.18 0.27 0.34 0.40 0.57 0.96 1.18 1.16 1.30 1.43 1.45 1.61 1.63 1.69 1.99 2.29 2.76 3.12 3.18 3.29 3.42 3.59 4.11 4.59 5.06 5.52 6.09 6.57 6.87 6.89 6.73 6.41 6.48 6.58 6.40 6.45
0.07 0.06 0.06 0.06 0.06 0.07 0.11 0.13 0.16 0.22 0.35 0.51 0.56 1.17 1.56 1.62 1.65 1.57 1.58 1.71 1.70 1.70 1.94 2.30 2.59 2.88 3.00 3.14 3.41 3.66 4.09 4.79 5.33 5.64 6.28 6.94 7.18 7.37 7.41 7.19 6.87 6.63 6.35 6.20
0.06 0.06 0.07 0.08 0.08 0.08 0.11 0.11 0.16 0.20 0.28 0.46 0.50 0.97 1.72 1.87 1.98 1.79 1.71 1.73 1.61 1.56 1.75 2.12 2.32 2.57 2.89 3.02 3.13 3.39 3.97 4.64 5.39 6.02 6.52 7.14 7.62 7.83 7.75 7.29 6.78 6.22 5.86 5.40
0.06 0.06 0.06 0.07 0.06 0.06 0.10 0.14 0.24 0.29 0.40 0.67 0.63 0.94 1.83 2.13 2.27 2.30 1.97 1.75 1.58 1.49 1.59 1.79 2.04 2.27 2.60 2.70 2.95 3.25 3.70 4.43 5.16 5.76 6.34 6.86 7.25 7.34 7.01 6.45 5.91 5.55 5.14 4.60
0.12 0.09 0.07 0.06 0.08 0.09 0.13 0.28 0.60 0.80 0.90 0.90 0.69 1.01 1.82 2.02 1.86 1.89 1.93 1.97 1.73 1.45 1.48 1.73 1.92 2.21 2.41 2.50 2.76 3.13 3.66 4.31 4.73 5.20 5.71 6.04 6.25 6.37 6.34 5.99 5.51 5.12 4.63 4.17
0.23 0.21 0.10 0.06 0.09 0.13 0.14 0.28 0.74 1.03 1.05 1.04 1.05 1.52 2.15 1.98 1.62 1.58 1.71 1.83 1.67 1.58 1.63 1.87 2.02 2.25 2.46 2.52 2.69 3.03 3.48 3.91 4.13 4.33 4.76 5.10 5.24 5.28 5.14 4.92 4.53 4.20 3.86 3.54
0.28 0.28 0.13 0.07 0.08 0.10 0.19 0.25 0.39 0.57 0.67 1.04 1.52 2.05 2.63 2.45 1.84 1.59 1.63 1.65 1.65 1.67 1.71 1.90 2.06 2.21 2.38 2.45 2.61 2.77 3.01 3.21 3.43 3.60 3.82 4.03 4.07 3.98 3.82 3.64 3.39 3.18 2.97 2.67
0.29 0.29 0.20 0.13 0.13 0.14 0.20 0.29 0.40 0.66 1.01 1.39 1.71 2.42 3.24 3.07 2.35 1.90 1.80 1.74 1.69 1.69 1.72 1.87 1.97 2.07 2.13 2.13 2.22 2.30 2.52 2.68 2.88 2.98 3.02 2.95 2.96 2.89 2.71 2.53 2.44 2.28 2.10 2.00
0.37 0.40 0.29 0.21 0.23 0.26 0.26 0.33 0.49 0.65 0.75 1.33 1.96 2.82 3.05 3.11 2.79 2.40 1.96 1.72 1.65 1.63 1.63 1.69 1.74 1.79 1.79 1.75 1.77 1.87 2.03 2.27 2.41 2.43 2.52 2.46 2.36 2.18 2.06 1.90 1.84 1.78 1.71 1.69
0.38 0.50 0.47 0.32 0.28 0.23 0.26 0.37 0.55 0.86 0.87 1.06 1.70 2.85 2.88 3.15 3.01 2.66 2.27 1.97 1.84 1.74 1.61 1.54 1.52 1.54 1.56 1.56 1.56 1.64 1.72 1.85 1.92 2.00 2.03 2.02 1.98 1.89 1.77 1.66 1.60 1.62 1.63 1.60
0.36 0.60 0.86 0.88 0.74 0.41 0.33 0.34 0.43 0.57 0.81 1.18 1.75 2.84 2.93 2.91 2.85 2.78 2.55 2.23 2.00 1.86 1.66 1.63 1.58 1.51 1.55 1.67 1.67 1.59 1.62 1.68 1.69 1.75 1.74 1.75 1.86 1.83 1.73 1.68 1.70 1.69 1.64 1.60
0.30 0.61 1.03 1.40 1.32 0.77 0.54 0.42 0.44 0.61 1.03 1.24 1.56 2.26 2.55 2.62 2.75 2.92 2.88 2.40 1.97 1.84 1.74 1.79 1.85 1.79 1.68 1.70 1.84 1.77 1.68 1.64 1.71 1.77 1.74 1.61 1.61 1.65 1.70 1.66 1.62 1.57 1.52 1.53
0.39 0.68 0.62 0.58 0.61 0.60 0.56 0.53 0.55 0.65 0.75 1.14 1.55 2.03 2.44 2.60 2.60 2.67 2.55 2.33 1.96 1.83 1.90 1.89 1.84 1.83 1.73 1.68 1.82 1.88 1.79 1.66 1.92 1.98 1.89 1.73 1.57 1.59 1.63 1.61 1.56 1.49 1.43 1.33
0.41 0.66 0.62 0.58 0.49 0.56 0.62 0.64 0.72 0.81 0.87 1.10 1.62 2.32 2.62 2.69 2.66 2.70 2.60 2.42 2.33 2.20 2.09 2.06 2.01 2.02 1.96 1.86 1.91 2.03 1.96 1.80 1.94 1.96 2.03 2.03 1.91 1.87 1.78 1.63 1.55 1.55 1.54 1.46
0.44 0.70 0.93 0.92 0.58 0.83 1.26 0.98 0.94 1.09 1.16 1.39 2.02 2.37 2.30 2.39 2.55 2.75 2.80 2.68 2.58 2.55 2.40 2.35 2.32 2.27 2.26 2.23 2.18 2.16 2.04 1.90 1.91 2.01 2.08 2.06 1.99 1.94 1.87 1.65 1.54 1.60 1.60 1.56
0.46 0.75 1.00 1.07 1.18 1.91 1.75 1.05 1.03 1.25 1.45 1.64 1.90 2.00 2.03 2.06 2.19 2.33 2.44 2.53 2.54 2.46 2.39 2.42 2.51 2.42 2.38 2.28 2.22 2.13 2.02 2.01 2.04 2.08 2.06 1.99 1.85 1.83 1.77 1.69 1.66 1.62 1.55 1.54
0.33 0.67 1.09 1.27 1.63 1.91 1.76 1.13 1.15 1.60 2.15 1.81 1.79 1.66 1.53 1.50 1.77 2.26 2.34 2.32 2.45 2.48 2.43 2.41 2.39 2.31 2.27 2.22 2.17 2.10 2.03 2.02 2.00 1.99 1.90 1.81 1.71 1.73 1.63 1.61 1.56 1.51 1.44 1.40
0.36 0.55 1.08 1.38 1.93 2.32 2.13 1.16 0.97 1.48 2.68 2.05 1.78 1.69 1.58 1.68 2.18 2.37 2.21 2.18 2.15 2.15 2.19 2.10 1.94 1.84 1.99 2.12 2.13 2.05 1.97 1.95 1.92 1.71 1.52 1.44 1.48 1.56 1.44 1.36 1.30 1.28 1.30 1.29
0.88 0.97 1.21 1.48 2.00 2.27 1.39 0.86 1.06 2.25 2.79 2.16 1.79 1.64 1.64 1.93 2.13 1.87 1.69 1.77 1.80 1.78 1.70 1.61 1.55 1.62 1.76 1.83 1.86 1.88 1.81 1.81 1.70 1.53 1.43 1.38 1.33 1.31 1.28 1.28 1.27 1.20 1.15 1.21
1.14 1.32 1.41 1.60 2.15 2.31 1.15 0.97 1.61 2.01 1.67 1.62 1.55 1.45 1.41 1.42 1.34 1.35 1.39 1.37 1.35 1.37 1.35 1.28 1.36 1.47 1.56 1.52 1.52 1.61 1.63 1.58 1.48 1.45 1.40 1.43 1.32 1.14 1.18 1.36 1.31 1.27 1.29 1.29
1.20 1.34 1.48 1.68 2.03 1.72 1.12 1.10 1.25 1.30 1.29 1.21 1.19 1.11 1.05 1.06 0.94 1.01 1.12 1.07 1.05 1.05 1.11 1.15 1.16 1.25 1.39 1.43 1.46 1.51 1.47 1.40 1.39 1.46 1.44 1.36 1.26 1.31 1.31 1.36 1.34 1.27 1.25 1.16
1.23 1.01 1.20 1.39 1.46 1.27 1.09 1.05 1.05 0.96 0.94 0.87 0.92 1.01 0.97 0.96 1.00 1.01 1.00 0.96 0.89 0.91 0.96 1.05 1.10 1.11 1.22 1.26 1.29 1.38 1.32 1.32 1.43 1.53 1.49 1.36 1.25 1.23 1.26 1.28 1.25 1.14 1.07 1.02
1.18 1.11 1.24 1.39 1.37 1.31 1.24 1.01 0.94 0.88 0.80 0.76 0.83 0.91 0.96 0.95 0.98 0.97 0.94 0.92 0.93 0.96 1.00 1.05 1.13 1.13 1.08 1.06 1.12 1.11 1.14 1.25 1.45 1.42 1.28 1.17 1.03 0.99 1.03 1.04 1.00 0.97 0.87 0.83
0.92 1.10 1.29 1.38 1.23 1.29 1.32 1.03 0.87 0.88 0.84 0.83 0.83 0.92 1.04 1.06 1.08 1.05 0.99 0.96 0.98 0.99 0.97 1.06 1.05 1.00 1.03 1.06 1.07 1.03 0.98 1.08 1.29 1.28 1.08 0.93 0.85 0.81 0.73 0.73 0.74 0.70 0.67 0.65